Flag Weather past 2 weeks in Warren, Michigan, U.S.A.

Now
24 °F

Sunny.


Feels Like: 14 °F
Forecast: 14 / 26 °F
Wind: 9 mph from West

Location: Detroit City Airport

Current Time: Nov 21, 2014 at 1:15:34 PM

Latest Report: Nov 21, 2014 at 11:53 AM


Visibility: 10 mi

Pressure: 30.50 "Hg

Humidity: 46%

Dew point: 6 °F

Location of WarrenLocation

Historic Weather in Warren — Graph

°F

Warren temperature yesterday

Maximum temperature yesterday: 28 °F (at 1:53 PM)
Minimum temperature yesterday: 20 °F (at 9:53 PM)
Average temperature yesterday: 25 °F

Past Weeks' High & Low Weather Summary

 TemperatureHumidityPressure
High65 °F (Nov 11, 1:53 PM)86% (Nov 6, 4:53 PM)30.87 "Hg (Nov 6, 4:53 PM)
Low14 °F (Nov 18, 4:53 AM)38% (Nov 7, 3:53 PM)28.18 "Hg (Nov 21, 5:53 AM)
Average35 °F63%30.02 "Hg
* Reported Nov 6 12:00 Noon — Nov 21 11:53 AM, Warren, Weather by CustomWeather, © 2014

Note: Actual official high and low records may vary slightly from our data, if they occured in-between our weather recording intervals... More about our weather records

Advertising

Warren weather history for previous 24 hours

 ConditionsComfort  
Time TempWeatherWind HumidityBarometerVisibility
11:53 AM
Nov 21
24 °FSunny.9 mph46%30.50 "Hg10 mi
10:53 AM23 °FSunny.6 mph53%30.50 "Hg10 mi
9:53 AM20 °FSunny.6 mph65%28.30 "Hg10 mi
8:53 AM16 °FSunny.6 mph74%30.47 "Hg10 mi
7:53 AM14 °FSunny.6 mph77%30.44 "Hg10 mi
6:53 AM14 °FClear.5 mph77%30.41 "Hg10 mi
5:53 AM15 °FClear.5 mph74%28.18 "Hg10 mi
4:53 AM16 °FClear.5 mph71%30.34 "Hg10 mi
3:53 AM17 °FClear.8 mph70%30.31 "Hg10 mi
2:53 AM18 °FClear.8 mph68%30.29 "Hg10 mi
1:53 AM18 °FClear.7 mph68%30.25 "Hg10 mi
12:53 AM19 °FPassing clouds.6 mph68%30.22 "Hg10 mi
11:53 PM
Nov 20
20 °FPassing clouds.6 mph62%30.19 "Hg10 mi
10:53 PM20 °FClear.10 mph65%30.16 "Hg10 mi
9:53 PM20 °FClear.8 mph68%30.15 "Hg10 mi
8:53 PM21 °FClear.6 mph62%30.13 "Hg10 mi
7:53 PM22 °FPassing clouds.9 mph68%30.11 "Hg10 mi
6:53 PM24 °FLight snow. Partly cloudy.13 mph65%30.08 "Hg7 mi
5:53 PM25 °FPassing clouds.13 mph58%30.06 "Hg10 mi
4:53 PM26 °FMostly cloudy.10 mph60%30.01 "Hg8 mi
3:53 PM28 °FOvercast.17 mph56%29.97 "Hg10 mi
2:53 PM28 °FPartly sunny.15 mph61%29.94 "Hg9 mi
1:53 PM28 °FLight snow. More clouds than sun.20 mph56%29.93 "Hg4 mi
Weather by CustomWeather, © 2014

See weather overviewHow to use our weather pages